COSMOS 1255

Satellite information

Favourite Embed

Satellite Type and Status

PAYLOADIN ORBIT

Key statistics

Satellite COSMOS 1255 at a glance.

Uptime

16359

Days in orbit

Revolutions

≈ 12.5

Per day

Orbit

LEO

Low Earth Orbit

Inclination

74.0

Latest

Satellite identification and parameters

Extended collection of information and parameters for COSMOS 1255.

Object identification

Identified? True

Debris? False

Object name: COSMOS 1255

International designator: 1981-022F

Object number (NORAD): 12325

Object ID (CCSDS): 12325

Country: COMMONWEALTH OF INDEPENDENT STATES (CIS)

Current information (Y/N): Y

RCS size: MEDIUM

Orbital parameters

Period: 115.063 minutes

Inclination: 74.027 deg

SMA: 7836.413 km

Apoapsis: 1472.173 km

Periapsis: 1444.382 km

RAAN: 151.3478 deg

Eccentricy: 0.00177322

Argument of periapsis: 300.8504 deg

Mean anomaly: 175.6745 deg

Mean motion: 12.51488394 rev/day

Mean motion (dot): -0.0000002 rev/day2

B* drag term: -0.000025913725 1/REarth

Two-line elements (TLE)

Creation date: Dec. 19, 2025, 2:08 a.m.

Reference frame: TEME

Reference center: EARTH

Epoch: Dec. 18, 2025, 10:18 p.m. UTC

TLE line 0: 0 COSMOS 1255

TLE line 1: 1 12325U 81022F 25352.92950089 -.00000020 00000-0 -25914-4 0 9994

TLE line 2: 2 12325 74.0270 151.3478 0017732 300.8504 175.6745 12.51488394 46037

Live tracking on map

Real-time ground track for satellite COSMOS 1255.

In-orbit conjunctions

A list of the most updated potential collisions computed for object COSMOS 1255.

Target Orbit TCA Probability of collision Miss distance Type
COSMOS 1823 DEB LEO 2025-01-04 15:01:28 0.0001218282 39.0 (m) DEBRIS

Associated space launch

Military communications satellites

COSMOS 1255 was lifted into orbit during the mission ‘Kosmos-3M | Strela-1M 209-216’, on board a Kosmos-3M space rocket.

The launch took place on March 6, 1981, 11:31 a.m. from 132/2.

For more information about the launch, click the button.

Launch to space Kosmos-3M | Strela-1M 209-216
Kosmos-3M | Strela-1M 209-216

Agency: N/A

Status: Launch Successful

Launch date: March 6, 1981, 11:31 a.m. UTC

Rocket: Kosmos-3M

Launch pad: 132/2

Location: Plesetsk Cosmodrome, Russian Federation

...

Latest news about this satellite

There are no fresh news available about this satellite. Check back as we update our databases every day.


Newsletter sign-up

Weekly statistics, charts and insights to help you stay on top of the space industry.